Cloud_Cover
0 0 0 0 0 0 0 0 0 0 0 0 0 0 0 0 0 0 0 0 12 24 32 24 24 20 24 12 12 24 44 68 56 36 20 12 20 24 24 24 32 36 36 36 64 88 88 80 80 80 76 80 76 56 8 8 8 12 36 76 88 88 92 92 92 92 92 92 88 88 92 92 92 92 92 92 92 92 92 92 92 92 80 92 92 92
8 8 12 8 12 12 0 0 0 0 0 0 0 0 0 0 0 0 8 12 20 32 36 32 32 36 44 24 24 36 44 36 24 8 20 36 44 32 24 32 24 20 20 24 48 76 80 88 68 44 32 48 32 12 36 24 12 32 88 80 80 88 88 88 92 92 92 92 80 76 92 92 92 92 92 92 88 88 92 92 92 92 88 92 92 92
8 12 48 32 20 12 0 0 0 0 0 0 0 0 0 0 0 12 36 36 36 36 44 44 44 56 76 36 32 36 44 44 24 12 12 48 68 64 36 32 36 44 36 44 44 48 80 76 48 32 24 20 24 48 80 64 44 48 88 88 88 88 88 88 92 92 92 92 88 88 92 92 92 92 92 92 92 92 92 92 92 88 68 88 92 92
8 12 24 36 36 24 8 8 8 8 8 8 0 0 0 8 20 32 36 36 36 44 44 48 56 68 76 48 44 36 20 36 32 12 12 48 68 68 48 44 56 68 68 80 80 76 64 32 24 36 76 44 64 88 68 64 56 64 88 88 88 88 88 88 88 92 92 92 92 92 92 92 92 92 92 92 92 92 92 92 92 88 76 92 92 92
24 32 44 56 48 32 12 12 24 32 32 20 12 8 12 32 48 56 48 44 48 56 48 48 64 80 88 44 20 8 0 32 24 12 8 44 64 68 56 64 56 56 80 88 76 64 44 44 56 68 88 88 76 68 88 88 68 56 88 88 88 88 88 80 88 92 92 92 92 92 92 92 92 92 92 92 92 92 92 92 92 92 92 92 92 92
56 68 76 80 64 32 12 20 44 56 56 32 24 24 36 64 80 80 68 68 76 80 64 56 64 68 68 36 20 8 0 32 32 12 0 24 44 64 68 80 76 68 80 88 80 76 76 88 80 76 88 88 68 64 88 88 80 76 88 88 88 88 88 88 92 92 92 88 92 92 92 92 92 92 92 92 92 92 92 92 92 92 92 92 92 92
64 88 88 88 64 36 36 36 48 68 80 56 56 48 32 76 88 88 88 88 88 88 80 68 64 64 56 44 36 32 32 24 12 0 0 0 20 44 56 68 68 68 68 76 80 76 44 68 76 68 76 88 88 88 88 88 88 88 88 76 80 88 88 92 92 92 88 88 88 88 92 92 92 92 92 92 92 92 92 92 92 92 92 92 92 92
56 68 88 88 80 76 76 48 56 76 88 76 68 64 56 64 76 88 88 76 76 80 76 76 68 56 64 56 64 64 56 36 24 12 8 8 8 20 24 24 32 44 68 64 76 76 32 68 80 88 76 88 80 76 88 68 64 68 88 76 80 88 88 80 80 88 88 88 88 88 92 92 92 92 92 92 92 92 92 92 92 92 92 92 92 92
76 64 68 80 88 88 88 56 48 56 80 80 76 76 88 68 76 88 88 56 48 64 76 88 88 76 44 64 76 76 68 48 44 44 56 36 32 20 12 8 0 12 44 68 80 76 44 76 88 88 88 64 48 44 48 56 64 68 68 80 88 80 56 76 80 88 88 88 88 88 92 92 92 92 92 92 92 92 92 92 92 92 92 92 92 92
88 80 76 56 68 88 88 76 48 36 44 64 80 88 88 88 76 64 68 48 48 64 88 88 88 80 48 76 76 64 76 48 36 44 68 48 44 48 64 48 48 44 20 64 76 68 56 56 56 56 56 64 64 64 64 68 64 64 56 80 68 48 36 76 88 88 80 92 88 80 92 88 88 92 92 92 92 92 92 92 92 92 92 92 92 92
76 88 88 56 48 64 88 88 48 20 20 44 76 88 88 88 80 76 76 56 64 80 88 88 88 80 76 80 64 44 76 44 48 64 48 24 24 36 64 32 24 24 12 24 32 36 44 36 24 20 24 68 88 76 36 36 36 44 80 80 68 64 68 68 76 88 88 88 92 92 92 92 92 92 92 92 92 92 92 92 92 92 92 92 92 92
76 88 88 80 76 76 88 88 76 64 64 76 80 88 88 88 88 88 88 76 80 80 68 68 76 88 88 88 68 48 48 56 76 76 48 12 8 8 12 8 0 0 0 20 24 32 36 32 32 32 36 56 68 68 64 64 44 32 88 88 68 64 88 80 80 80 64 88 92 92 80 88 92 92 92 92 92 92 92 92 92 92 92 92 92 92
88 88 88 88 88 88 88 88 80 76 76 80 88 88 88 88 88 88 88 88 56 44 76 76 56 48 76 80 80 76 76 36 24 32 48 24 8 0 0 0 0 0 0 36 44 32 20 24 36 44 48 56 56 64 88 88 56 36 80 88 68 56 88 68 56 48 44 76 92 92 92 88 92 92 92 92 92 92 92 92 92 92 92 92 92 92
64 48 88 88 88 88 88 88 64 48 76 80 88 88 88 88 88 88 88 88 76 64 56 44 48 56 56 80 88 80 76 64 36 20 44 48 44 24 20 20 20 24 56 48 32 20 24 32 32 24 24 32 44 68 88 44 24 20 24 48 48 56 88 44 56 68 56 68 88 92 92 92 92 92 92 92 92 92 92 92 92 92 92 92 92 92
44 48 88 80 88 80 80 68 68 80 80 88 88 88 88 88 76 68 80 80 68 48 36 64 44 24 56 80 88 88 80 80 56 36 36 48 48 56 76 68 56 48 80 64 32 12 12 20 20 20 32 12 12 24 32 44 44 44 76 76 80 80 88 80 56 48 80 88 92 92 92 92 92 92 92 92 92 92 92 92 92 92 92 92 92 92
56 80 80 80 80 68 32 24 56 88 88 88 88 88 88 88 80 80 80 80 56 44 76 80 76 68 48 76 88 88 88 80 56 32 32 48 48 56 88 76 76 68 44 68 68 44 20 24 32 24 12 24 36 56 68 56 44 48 76 88 88 88 88 88 88 80 76 80 92 92 92 92 92 92 92 92 92 92 92 92 92 92 92 92 92 92
80 88 80 80 80 76 44 68 80 88 88 88 76 68 88 80 80 80 80 80 80 80 80 80 80 80 76 48 64 80 88 80 64 44 64 64 44 44 64 76 80 80 80 80 80 68 32 36 32 24 20 20 24 24 36 76 80 80 76 56 68 88 88 88 88 80 64 76 88 92 92 92 92 92 92 92 92 92 92 92 92 92 92 92 92 92
88 76 44 48 48 56 80 88 88 88 88 88 88 80 88 88 80 80 80 80 80 80 80 80 80 80 80 80 56 48 88 88 80 80 76 68 68 76 76 80 80 80 80 64 64 64 56 44 36 36 36 68 80 80 80 88 88 88 88 68 76 88 88 88 76 68 76 88 92 92 92 92 92 92 92 92 92 92 92 92 92 92 92 92 92 92
80 80 80 80 80 80 88 88 88 88 88 88 88 68 32 44 68 80 80 80 80 80 80 80 80 80 80 80 64 48 88 88 88 80 80 64 44 32 36 48 56 56 48 76 80 76 64 56 44 32 36 76 88 88 88 88 88 88 88 88 88 88 88 88 76 68 92 88 88 92 92 92 92 92 92 92 92 92 92 92 92 92 92 92 92 92
80 88 80 88 88 88 88 88 88 88 88 68 64 56 48 76 80 80 80 80 80 80 80 80 80 80 80 80 68 56 88 88 80 80 80 80 76 56 24 48 64 68 80 80 56 36 64 68 64 48 24 48 64 68 64 80 88 76 48 76 88 88 88 76 80 92 92 92 92 88 92 92 92 92 92 92 92 92 92 92 92 92 92 92 92 92
80 76 56 76 88 88 88 56 44 48 88 88 88 76 44 76 80 80 80 80 80 80 80 80 80 80 80 80 64 48 56 80 88 80 80 80 48 32 48 64 76 76 64 36 44 64 80 68 76 76 48 44 48 64 76 80 88 88 88 88 88 88 88 88 88 88 88 92 92 92 92 92 92 92 92 92 92 92 92 92 92 92 92 92 92 92
80 88 88 76 80 88 88 36 44 76 88 88 88 88 80 80 80 80 80 80 80 80 80 80 80 80 80 80 48 32 88 88 80 80 80 80 76 64 64 76 80 80 80 80 68 56 68 80 80 68 64 76 80 88 88 88 88 88 88 76 76 88 88 64 56 56 56 68 76 76 92 92 92 92 92 88 88 92 92 92 92 92 92 92 92 92
80 80 80 80 88 88 88 88 80 80 80 88 88 88 88 80 80 80 80 80 80 80 80 80 80 80 80 88 76 68 80 88 80 80 80 76 48 32 64 80 80 80 80 68 64 64 80 80 68 64 48 64 76 88 88 88 88 88 88 88 76 68 88 56 48 56 64 80 88 92 92 92 92 92 92 92 92 92 92 92 92 92 92 92 92 92
76 76 64 80 88 88 88 88 76 64 76 80 88 88 88 88 80 80 80 80 80 80 80 80 76 68 76 80 88 88 80 80 80 88 80 80 68 56 48 76 76 68 80 32 36 64 64 44 44 48 56 56 64 76 80 76 76 80 88 88 88 88 88 68 68 76 68 88 92 92 92 92 92 92 92 92 92 92 92 92 92 92 92 92 92 92
88 88 88 88 88 80 76 88 88 88 88 80 76 76 68 68 68 68 76 80 80 80 80 80 80 76 64 76 88 88 76 80 88 88 80 80 80 76 64 76 80 80 80 36 44 56 48 48 44 44 48 32 32 36 44 32 24 44 80 88 88 88 80 68 68 80 92 92 92 92 92 92 92 92 92 92 92 92 92 92 92 92 92 92 92 92
80 80 88 68 56 44 32 56 64 68 88 44 32 32 24 36 56 76 80 76 76 80 80 80 80 76 64 80 88 88 68 80 88 80 80 80 76 80 80 68 76 80 80 80 80 80 76 64 64 68 76 36 20 20 12 0 0 20 80 88 88 80 68 76 80 80 88 88 92 92 92 92 92 92 92 92 92 92 92 92 92 92 92 92 92 92
44 44 64 20 8 8 8 8 8 24 64 44 32 36 56 76 76 68 80 80 80 88 88 80 80 76 64 76 80 80 76 80 88 80 88 80 80 76 80 76 76 80 80 76 64 64 64 64 56 44 36 8 0 0 0 20 32 48 88 88 88 88 80 56 56 68 76 88 92 92 92 92 92 92 92 92 92 92 92 92 92 92 92 92 92 92
24 12 12 8 20 24 20 12 12 20 20 44 48 44 44 64 76 76 68 80 88 88 88 88 80 80 80 68 76 80 80 88 88 88 88 80 80 76 64 64 68 76 80 80 48 36 80 56 44 32 8 0 0 8 12 68 88 88 88 88 88 88 80 56 64 76 68 68 80 92 92 92 88 88 92 92 92 92 92 92 92 92 92 92 92 92
20 12 12 24 36 36 20 12 8 0 8 8 44 68 24 32 56 76 68 80 88 88 88 88 80 80 80 76 76 76 80 80 80 80 80 80 76 76 56 76 80 80 80 80 68 56 64 64 68 68 24 20 24 32 48 48 48 64 88 76 80 88 88 88 76 64 56 64 76 92 92 92 88 80 92 92 92 92 92 92 92 92 92 92 92 92
20 20 24 36 20 0 0 0 0 0 0 24 48 68 56 32 56 76 56 76 80 88 80 80 80 80 80 76 76 76 76 64 76 80 88 80 80 76 80 80 80 80 80 80 76 68 32 36 56 76 48 32 24 24 32 8 0 20 44 48 68 80 76 80 88 80 56 76 88 92 92 92 92 92 92 92 92 92 92 92 92 92 92 92 92 92
36 44 36 24 8 0 0 0 0 0 0 24 32 36 44 48 68 76 56 76 80 80 80 80 80 80 80 80 76 76 76 44 64 88 88 80 80 76 80 80 80 80 80 80 80 68 48 56 48 48 56 36 12 0 0 0 0 8 12 48 68 64 48 64 76 80 68 68 76 80 80 80 88 92 92 92 92 92 92 92 92 92 92 92 92 92
48 44 24 12 0 0 0 0 0 8 24 24 24 20 32 56 76 76 80 80 80 80 76 80 80 80 80 80 76 68 64 48 64 88 88 80 80 76 80 80 80 80 80 80 80 76 76 76 64 44 36 44 24 8 0 8 12 32 56 76 76 64 44 64 80 76 56 68 68 64 68 80 80 80 88 88 88 92 92 92 92 92 92 92 92 92
36 24 8 0 0 0 0 0 8 32 64 48 44 44 44 48 56 68 80 80 80 80 80 80 80 80 80 80 76 76 64 68 76 80 88 80 80 80 76 76 76 80 80 80 80 76 76 76 76 76 64 48 36 24 8 32 48 68 80 80 80 76 48 76 76 68 64 76 80 76 80 88 88 88 92 88 92 92 92 92 92 92 88 92 92 92
20 8 0 0 0 0 8 24 44 64 80 56 48 44 36 36 36 44 64 76 80 80 80 80 76 76 76 76 76 76 76 68 76 88 88 88 80 80 76 76 80 80 80 80 76 76 76 76 76 76 76 44 48 64 56 56 64 68 80 80 80 80 76 80 76 68 64 56 64 76 80 88 92 92 92 92 92 92 92 88 92 92 76 92 92 92
20 8 0 0 8 24 32 44 64 80 80 44 24 20 20 20 24 36 48 76 80 80 80 80 80 76 76 76 76 64 36 44 68 88 88 88 80 80 80 76 80 80 80 76 76 76 76 76 76 76 76 64 56 64 80 44 36 44 44 56 76 88 88 88 88 80 76 76 76 80 88 92 92 92 92 92 92 92 92 92 92 88 80 80 88 92
44 24 20 48 48 44 36 64 76 68 56 64 44 24 20 8 8 12 24 36 36 36 48 64 76 76 64 68 76 56 8 20 56 92 88 88 88 80 80 76 80 80 76 76 76 76 76 76 76 76 76 76 68 68 80 68 48 32 20 20 36 64 88 88 76 68 64 80 76 68 76 88 88 88 80 88 92 92 92 92 92 92 88 76 80 88
56 44 68 68 64 64 48 76 68 56 76 80 56 24 12 0 0 0 0 0 8 8 20 24 36 36 20 24 32 24 0 8 20 48 92 92 88 88 88 80 80 80 80 80 76 76 76 76 76 76 76 76 76 68 44 76 76 56 12 12 32 48 56 56 48 44 32 76 76 64 64 76 68 68 68 80 92 92 88 92 92 88 80 80 76 76
80 76 68 48 56 68 68 56 64 76 80 48 24 8 0 0 0 0 0 0 0 8 8 8 8 8 0 8 8 0 0 0 0 24 76 88 92 88 80 80 80 80 88 80 80 76 76 76 76 76 76 76 80 76 68 48 36 32 32 20 24 32 32 48 56 48 32 76 88 88 88 88 76 76 88 80 64 48 44 48 64 68 68 68 68 68
76 80 80 76 64 64 80 36 44 68 76 32 12 8 0 0 0 0 0 0 8 12 12 12 8 0 0 0 0 0 0 0 0 12 48 80 92 88 88 88 80 80 88 80 80 76 76 76 76 76 76 76 76 76 80 76 68 64 36 44 32 20 44 56 56 48 48 56 68 88 88 76 76 88 88 64 48 44 24 32 36 48 64 64 64 68
80 80 80 76 56 36 32 12 12 32 80 56 36 20 8 0 0 0 0 0 12 20 24 32 36 36 24 12 0 0 0 0 0 0 0 12 44 80 92 88 88 88 80 80 80 80 76 76 76 76 76 76 76 76 80 80 80 76 76 76 76 68 56 56 48 44 44 76 80 76 88 88 88 88 76 48 56 68 80 32 20 24 32 36 48 48
80 80 80 32 8 12 44 24 36 44 44 68 64 36 12 0 0 8 0 12 12 12 20 36 44 44 12 0 0 0 0 8 8 0 0 20 36 56 92 92 92 88 80 80 80 80 80 76 76 76 76 76 76 76 80 80 88 88 88 80 48 24 32 44 56 56 56 48 48 56 80 88 88 88 88 64 48 48 88 32 20 20 24 24 32 32
76 56 48 12 0 0 0 8 8 24 80 80 64 36 8 20 24 24 12 0 8 12 24 32 36 24 0 0 0 0 8 12 12 8 12 20 32 48 88 92 92 88 80 80 80 80 80 76 76 76 76 76 76 76 76 76 80 80 80 80 80 64 32 68 68 56 48 48 48 56 88 88 88 88 88 44 24 20 32 20 20 20 20 20 56 68
36 24 24 48 64 48 20 56 76 80 80 64 48 36 20 44 56 56 56 24 8 0 8 8 32 44 32 8 0 0 12 12 20 20 20 24 32 36 36 36 68 92 92 80 80 76 80 80 80 80 80 76 80 76 76 76 80 80 80 80 80 80 76 48 64 76 64 48 48 64 88 88 88 88 88 88 88 68 20 32 24 12 8 8 44 76
32 20 8 56 80 80 80 68 76 80 80 80 64 36 32 32 44 56 80 68 48 24 24 24 36 44 20 0 0 8 20 24 24 24 32 44 48 56 64 68 76 80 92 80 80 76 80 80 80 80 80 80 76 76 76 76 80 80 80 88 80 80 80 76 68 64 64 64 56 56 64 76 80 88 88 88 88 88 88 44 20 8 8 8 24 36
24 20 12 36 68 80 80 80 80 76 64 76 56 36 44 36 48 56 56 36 36 44 32 32 32 24 0 0 0 8 24 32 36 36 36 56 68 76 80 80 76 76 88 88 88 80 80 76 80 80 80 80 80 80 80 80 80 80 80 80 80 80 80 64 68 80 80 64 64 64 48 68 80 88 88 88 76 56 36 48 44 32 8 8 8 8
36 44 68 68 68 76 80 80 80 80 80 56 64 68 44 56 64 56 48 44 48 56 32 48 68 56 8 0 0 8 32 44 44 48 48 56 56 64 68 76 80 80 88 88 88 88 80 80 80 80 80 80 80 80 88 80 80 80 80 80 80 80 80 80 80 80 76 48 44 48 44 36 56 80 88 88 88 80 76 44 24 12 8 0 0 0
32 24 12 56 76 80 80 80 80 80 80 80 76 64 56 68 76 68 48 48 56 64 76 44 48 56 32 20 12 12 36 36 44 56 56 68 68 64 64 76 80 80 80 88 92 88 80 80 80 80 80 80 80 80 88 88 88 80 80 80 80 80 80 80 76 68 36 36 48 64 48 76 80 80 88 88 80 80 88 44 12 0 0 0 0 0
32 32 24 12 44 80 80 76 76 80 80 80 80 80 80 80 76 64 48 44 48 56 68 56 36 24 20 20 24 36 64 64 64 64 68 76 76 76 76 76 76 76 76 88 88 80 80 80 80 80 80 88 80 76 80 80 88 88 80 80 80 80 80 80 68 56 44 32 48 68 64 68 76 80 80 80 80 80 80 36 12 0 0 8 0 0
32 24 20 20 44 76 80 64 68 80 80 80 80 80 80 80 80 76 56 44 44 48 44 36 36 36 32 20 24 44 68 68 68 68 68 68 68 76 76 76 76 76 80 80 76 76 80 76 80 88 92 88 80 76 80 80 80 80 80 80 80 80 80 80 80 76 48 36 24 32 68 44 48 68 80 80 80 80 80 48 24 12 8 0 0 0
24 24 20 36 56 76 76 80 80 80 80 80 80 80 76 80 80 76 56 44 48 56 56 48 56 56 48 36 32 36 64 76 76 68 68 64 64 68 68 68 68 76 80 76 80 80 64 68 80 92 92 88 80 76 80 80 80 80 80 80 80 80 80 80 80 80 80 56 36 32 44 24 24 36 68 76 80 80 80 76 48 24 0 0 0 0
24 20 20 24 44 68 76 80 80 80 80 80 80 80 80 80 80 76 56 48 56 68 56 56 64 64 48 36 36 44 64 76 76 68 56 64 64 64 68 68 68 76 80 88 88 88 88 88 88 88 92 88 80 76 80 80 80 80 76 80 80 80 80 80 80 80 80 80 68 64 80 48 44 44 32 68 80 76 76 64 32 0 0 0 0 0